| time (UTC) | temp F | wind direction | speed knots | gust knots | rain 1hr in | rain 24hr in | rain mn in | humidity % | barometer mb |
| 20260502231412 | 54 | 300 | 2.6 | 3.5 | 0.00 | 0.00 | 0.00 | 71 | 1020.3 |
| 20260502230231 | 54 | 300 | 1.7 | 2.6 | 0.00 | 0.00 | 0.00 | 73 | 1020.4 |
| 20260502225104 | 55 | 300 | 2.6 | 3.5 | 0.00 | 0.00 | 0.00 | 71 | 1020.3 |
| 20260502223936 | 55 | 300 | 3.5 | 3.5 | 0.00 | 0.00 | 0.00 | 67 | 1020.3 |
| 20260502222809 | 55 | 300 | 1.7 | 4.3 | 0.00 | 0.00 | 0.00 | 70 | 1020.4 |
| 20260502221552 | 55 | 294 | 5.2 | 5.2 | 0.00 | 0.00 | 0.00 | 66 | 1020.4 |
| 20260502220412 | 56 | 306 | 4.3 | 4.3 | 0.00 | 0.00 | 0.00 | 65 | 1020.4 |
| 20260502215244 | 57 | 300 | 3.5 | 4.3 | 0.00 | 0.00 | 0.00 | 65 | 1020.5 |
| 20260502214117 | 57 | 296 | 3.5 | 4.3 | 0.00 | 0.00 | 0.00 | 66 | 1020.5 |
| 20260502212949 | 57 | 294 | 3.5 | 3.5 | 0.00 | 0.00 | 0.00 | 64 | 1020.4 |
| 20260502211732 | 58 | 324 | 1.7 | 5.2 | 0.00 | 0.00 | 0.00 | 62 | 1020.5 |
| 20260502210551 | 58 | 329 | 3.5 | 5.2 | 0.00 | 0.00 | 0.00 | 64 | 1020.5 |
| 20260502205424 | 58 | 306 | 3.5 | 3.5 | 0.00 | 0.00 | 0.00 | 60 | 1020.4 |
| 20260502204256 | 58 | 306 | 0.0 | 2.6 | 0.00 | 0.00 | 0.00 | 62 | 1020.5 |
| 20260502203128 | 59 | 306 | 3.5 | 3.5 | 0.00 | 0.00 | 0.00 | 59 | 1020.5 |
| 20260502201912 | 58 | 301 | 2.6 | 3.5 | 0.00 | 0.00 | 0.00 | 65 | 1020.5 |
| 20260502200731 | 58 | 301 | 3.5 | 4.3 | 0.00 | 0.00 | 0.00 | 64 | 1020.6 |
| 20260502195604 | 58 | 296 | 4.3 | 4.3 | 0.00 | 0.00 | 0.00 | 65 | 1020.6 |
| 20260502194436 | 58 | 288 | 4.3 | 4.3 | 0.00 | 0.00 | 0.00 | 63 | 1020.6 |
| 20260502193309 | 58 | 306 | 3.5 | 3.5 | 0.00 | 0.00 | 0.00 | 65 | 1020.5 |
| 20260502192052 | 58 | 306 | 4.3 | 4.3 | 0.00 | 0.00 | 0.00 | 63 | 1020.5 |
| 20260502190911 | 58 | 306 | 3.5 | 4.3 | 0.00 | 0.00 | 0.00 | 63 | 1020.5 |
| 20260502185744 | 59 | 300 | 4.3 | 4.3 | 0.00 | 0.00 | 0.00 | 61 | 1020.4 |
| 20260502184616 | 60 | 296 | 2.6 | 3.5 | 0.00 | 0.00 | 0.00 | 61 | 1020.3 |
| 20260502183449 | 60 | 296 | 3.5 | 3.5 | 0.00 | 0.00 | 0.00 | 59 | 1020.3 |
| 20260502182232 | 61 | 285 | 3.5 | 4.3 | 0.00 | 0.00 | 0.00 | 54 | 1020.1 |
| 20260502181051 | 61 | 296 | 3.5 | 3.5 | 0.00 | 0.00 | 0.00 | 56 | 1020.0 |
| 20260502170104 | 66 | 276 | 4.3 | 4.3 | 0.00 | 0.00 | 0.00 | 46 | 1019.6 |
| 20260502163809 | 69 | 228 | 2.6 | 5.2 | 0.00 | 0.00 | 0.00 | 40 | 1019.7 |
| 20260502162552 | 71 | 258 | 3.5 | 5.2 | 0.00 | 0.00 | 0.00 | 38 | 1019.7 |
| 20260502161411 | 72 | 274 | 3.5 | 3.5 | 0.00 | 0.00 | 0.00 | 38 | 1019.8 |
| 20260502160244 | 72 | 174 | 2.6 | 5.2 | 0.00 | 0.00 | 0.00 | 35 | 1019.9 |
| 20260502151551 | 73 | 210 | 5.2 | 7.0 | 0.00 | 0.00 | 0.00 | 32 | 1020.2 |
| 20260502150424 | 73 | 180 | 9.6 | 10.4 | 0.00 | 0.00 | 0.00 | 33 | 1020.3 |
| 20260502130718 | 73 | 6 | 1.7 | 4.3 | 0.00 | 0.00 | 0.00 | 31 | 1021.9 |
| 20260502123206 | 71 | 216 | 3.5 | 6.1 | 0.00 | 0.00 | 0.00 | 31 | 1022.3 |
| 20260502122025 | 71 | 216 | 4.3 | 7.8 | 0.00 | 0.00 | 0.00 | 32 | 1022.5 |
| 20260502120856 | 71 | 126 | 2.6 | 5.2 | 0.00 | 0.00 | 0.00 | 33 | 1022.6 |
| 20260502115728 | 71 | 122 | 7.0 | 7.0 | 0.00 | 0.00 | 0.00 | 32 | 1022.6 |
| 20260502114601 | 70 | 216 | 2.6 | 7.8 | 0.00 | 0.00 | 0.00 | 32 | 1022.8 |
| 20260502113344 | 70 | 222 | 3.5 | 5.2 | 0.00 | 0.00 | 0.00 | 34 | 1023.0 |
| 20260502112203 | 70 | 210 | 6.1 | 7.0 | 0.00 | 0.00 | 0.00 | 34 | 1023.1 |
| 20260502111036 | 69 | 246 | 1.7 | 9.6 | 0.00 | 0.00 | 0.00 | 35 | 1023.2 |
| 20260502105909 | 68 | 104 | 2.6 | 7.8 | 0.00 | 0.00 | 0.00 | 36 | 1023.4 |
| 20260502104741 | 68 | 132 | 2.6 | 7.8 | 0.00 | 0.00 | 0.00 | 34 | 1023.4 |
| 20260502103524 | 68 | 204 | 2.6 | 6.1 | 0.00 | 0.00 | 0.00 | 34 | 1023.5 |
| 20260502102343 | 68 | 168 | 6.1 | 6.1 | 0.00 | 0.00 | 0.00 | 35 | 1023.7 |
| 20260502101215 | 68 | 162 | 5.2 | 6.1 | 0.00 | 0.00 | 0.00 | 35 | 1023.8 |
| 20260502091354 | 67 | 105 | 3.5 | 6.1 | 0.00 | 0.00 | 0.00 | 38 | 1024.3 |
| 20260502090227 | 66 | 98 | 3.5 | 6.1 | 0.00 | 0.00 | 0.00 | 36 | 1024.4 |
| 20260502070546 | 64 | 109 | 1.7 | 3.5 | 0.00 | 0.00 | 0.00 | 47 | 1025.0 |
| 20260502065419 | 64 | 135 | 1.7 | 1.7 | 0.00 | 0.00 | 0.00 | 46 | 1025.1 |
| 20260502064251 | 62 | 186 | 1.7 | 2.6 | 0.00 | 0.00 | 0.00 | 50 | 1025.1 |
| 20260502063124 | 62 | 198 | 1.7 | 2.6 | 0.00 | 0.00 | 0.00 | 49 | 1025.2 |
| 20260502061908 | 61 | 216 | 1.7 | 2.6 | 0.00 | 0.00 | 0.00 | 48 | 1025.3 |
| 20260502060726 | 61 | 234 | 1.7 | 2.6 | 0.00 | 0.00 | 0.00 | 47 | 1025.3 |
| 20260502055559 | 60 | 288 | 1.7 | 2.6 | 0.00 | 0.00 | 0.00 | 51 | 1025.3 |
| 20260502054431 | 59 | 306 | 3.5 | 5.2 | 0.00 | 0.00 | 0.00 | 44 | 1025.4 |
| 20260502053304 | 58 | 300 | 3.5 | 5.2 | 0.00 | 0.00 | 0.00 | 47 | 1025.4 |
| 20260502052047 | 57 | 311 | 3.5 | 5.2 | 0.00 | 0.00 | 0.00 | 49 | 1025.4 |
| 20260502050907 | 56 | 306 | 4.3 | 5.2 | 0.00 | 0.00 | 0.00 | 50 | 1025.4 |
| 20260502045739 | 55 | 285 | 2.6 | 5.2 | 0.00 | 0.00 | 0.00 | 55 | 1025.4 |
| 20260502044611 | 53 | 302 | 1.7 | 4.3 | 0.00 | 0.00 | 0.00 | 57 | 1025.3 |
| 20260502043444 | 51 | 294 | 4.3 | 4.3 | 0.00 | 0.00 | 0.00 | 55 | 1025.3 |
| 20260502042227 | 51 | 288 | 3.5 | 4.3 | 0.00 | 0.00 | 0.00 | 59 | 1025.4 |
| 20260502041047 | 50 | 300 | 2.6 | 2.6 | 0.00 | 0.00 | 0.00 | 67 | 1025.4 |
| 20260502035919 | 50 | 300 | 1.7 | 1.7 | 0.00 | 0.00 | 0.00 | 65 | 1025.3 |
| 20260502034752 | 50 | 291 | 1.7 | 2.6 | 0.00 | 0.00 | 0.00 | 67 | 1025.3 |
| 20260502033624 | 51 | 291 | 2.6 | 2.6 | 0.00 | 0.00 | 0.00 | 58 | 1025.3 |
| 20260502032407 | 51 | 291 | 2.6 | 2.6 | 0.00 | 0.00 | 0.00 | 62 | 1025.3 |
| 20260502031226 | 51 | 291 | 2.6 | 3.5 | 0.00 | 0.00 | 0.00 | 57 | 1025.3 |
| 20260502030058 | 51 | 297 | 2.6 | 4.3 | 0.00 | 0.00 | 0.00 | 68 | 1025.4 |
| 20260502024931 | 51 | 297 | 3.5 | 4.3 | 0.00 | 0.00 | 0.00 | 60 | 1025.4 |
| 20260502023803 | 51 | 297 | 3.5 | 4.3 | 0.00 | 0.00 | 0.00 | 58 | 1025.5 |
| 20260502022546 | 51 | 301 | 4.3 | 4.3 | 0.00 | 0.00 | 0.00 | 57 | 1025.5 |
| 20260502021405 | 50 | 302 | 3.5 | 4.3 | 0.00 | 0.00 | 0.00 | 63 | 1025.5 |
| 20260502020237 | 50 | 301 | 3.5 | 3.5 | 0.00 | 0.00 | 0.00 | 65 | 1025.6 |
| 20260502015110 | 51 | 300 | 3.5 | 4.3 | 0.00 | 0.00 | 0.00 | 56 | 1025.6 |
| 20260502013943 | 51 | 306 | 3.5 | 4.3 | 0.00 | 0.00 | 0.00 | 64 | 1025.8 |
| 20260502012726 | 51 | 306 | 3.5 | 3.5 | 0.00 | 0.00 | 0.00 | 63 | 1025.8 |
| 20260502011545 | 50 | 306 | 1.7 | 3.5 | 0.00 | 0.00 | 0.00 | 65 | 1025.8 |
| 20260502010417 | 51 | 297 | 1.7 | 3.5 | 0.00 | 0.00 | 0.00 | 62 | 1025.7 |
| 20260502005250 | 51 | 297 | 1.7 | 3.5 | 0.00 | 0.00 | 0.00 | 60 | 1025.8 |
| 20260502004123 | 51 | 342 | 3.5 | 3.5 | 0.00 | 0.00 | 0.00 | 60 | 1025.8 |
| 20260502002955 | 52 | 297 | 2.6 | 3.5 | 0.00 | 0.00 | 0.00 | 58 | 1025.8 |
| 20260502001828 | 51 | 297 | 3.5 | 3.5 | 0.00 | 0.00 | 0.00 | 57 | 1025.9 |
| 20260502000713 | 52 | 306 | 3.5 | 3.5 | 0.00 | 0.00 | 0.00 | 63 | 1025.8 |
| 20260501235532 | 53 | 288 | 2.6 | 4.3 | 0.00 | 0.00 | 0.00 | 56 | 1025.8 |
| 20260501234405 | 54 | 294 | 5.2 | 5.2 | 0.00 | 0.00 | 0.00 | 53 | 1025.8 |
| 20260501233237 | 53 | 300 | 5.2 | 5.2 | 0.00 | 0.00 | 0.00 | 51 | 1025.9 |